Location: Unspecified
(0.0000°N, 0.0000°E)
Time: 07:29:42
(UTC+00:00)

Transit 4A - Pass Details

Date: 10 October 2023
Orbit: 864 x 979 km, 66.8° (Epoch: 05 December)

Event Time Altitude Azimuth Distance (km) Brightness Sun altitude
Rises 06:23:27 0° 176° (S) 3,545 11.1 9.0°
Reaches altitude 10° 06:26:24 10° 163° (SSE) 2,621 10.6 9.8°
Maximum altitude 06:31:18 25° 109° (ESE) 1,790 11.2 11.0°
Drops below altitude 10° 06:36:17 10° 56° (NE) 2,676 11.2 12.2°
Sets 06:39:18 0° 43° (NE) 3,634 11.5 13.0°
